Volver al catálogo

FENGYUN 1C DEB

ActivoSSO
NORAD 30481·DEBRIS·🇨🇳 China

Lanzado May 10, 1999 desde Taiyuan Satellite Launch Center

Loading…

Próximos Pases (próximas 24 horas)

TLE

ActualizadoSource: Space-Track

Época: Sep 14, 2026, 12:36 UTC

1 30481U 99025AGT 26257.52551194  .00000863  00000-0  21686-3 0  9998
2 30481  98.3250 272.4127 0222208 149.6502   3.1321 14.39968368 24433

Sigue FENGYUN 1C DEB en tiempo real con AllMySat

Download on the App Store